Time,TemperatureF,DewpointF,PressureIn,WindDirection,WindDirectionDegrees,WindSpeedMPH,WindSpeedGustMPH,Humidity,HourlyPrecipIn,Conditions,Clouds,dailyrainin,SoftwareType,DateUTC
2016-07-27 00:01:00,74.5,74.5,29.88,East,100,0.0,0.0,0,0.00,,,0.00,meteohub,2016-07-27 04:01:00,
2016-07-27 00:06:00,74.1,74.1,29.88,East,100,0.0,0.0,0,0.00,,,0.00,meteohub,2016-07-27 04:06:00,
2016-07-27 00:11:00,73.9,73.9,29.88,East,100,1.0,0.0,0,0.00,,,0.00,meteohub,2016-07-27 04:11:00,
2016-07-27 00:16:00,74.8,74.8,29.88,ENE,76,1.0,6.0,0,0.00,,,0.00,meteohub,2016-07-27 04:16:00,
2016-07-27 00:21:00,75.7,34.2,29.88,East,90,0.0,6.0,22,0.00,,,0.00,meteohub,2016-07-27 04:21:00,
2016-07-27 00:27:00,76.5,44.4,29.88,East,96,2.0,6.0,32,0.00,,,0.00,meteohub,2016-07-27 04:27:00,
2016-07-27 00:32:00,76.8,48.6,29.89,East,96,2.0,7.0,37,0.00,,,0.00,meteohub,2016-07-27 04:32:00,
2016-07-27 00:37:00,77.0,50.2,29.89,East,89,3.0,7.0,39,0.00,,,0.00,meteohub,2016-07-27 04:37:00,
2016-07-27 00:42:00,77.2,51.6,29.89,East,80,2.0,6.0,41,0.00,,,0.00,meteohub,2016-07-27 04:42:00,
2016-07-27 00:47:00,77.2,52.3,29.89,East,85,5.0,6.0,42,0.00,,,0.00,meteohub,2016-07-27 04:47:00,
2016-07-27 00:52:00,77.2,52.3,29.89,East,92,2.0,6.0,42,0.00,,,0.00,meteohub,2016-07-27 04:52:00,
2016-07-27 00:57:00,77.0,52.2,29.89,East,101,2.0,6.0,42,0.00,,,0.00,meteohub,2016-07-27 04:57:00,
2016-07-27 01:02:00,76.8,51.3,29.89,East,86,3.0,6.0,41,0.00,,,0.00,meteohub,2016-07-27 05:02:00,
2016-07-27 01:07:00,76.6,50.5,29.89,East,94,6.0,6.0,40,0.00,,,0.00,meteohub,2016-07-27 05:07:00,
2016-07-27 01:12:00,76.5,51.1,29.89,ESE,111,2.0,6.0,41,0.00,,,0.00,meteohub,2016-07-27 05:12:00,
2016-07-27 01:17:00,76.5,51.6,29.89,ENE,69,2.0,6.0,42,0.00,,,0.00,meteohub,2016-07-27 05:17:00,
2016-07-27 01:22:00,76.5,53.6,29.89,ESE,117,4.0,6.0,45,0.00,,,0.00,meteohub,2016-07-27 05:22:00,
2016-07-27 01:27:00,76.5,54.1,29.89,East,95,0.0,5.0,46,0.00,,,0.00,meteohub,2016-07-27 05:27:00,
2016-07-27 01:32:00,76.5,54.7,29.89,East,95,2.0,6.0,47,0.00,,,0.00,meteohub,2016-07-27 05:32:00,
2016-07-27 01:37:00,76.3,55.2,29.89,East,86,0.0,6.0,48,0.00,,,0.00,meteohub,2016-07-27 05:37:00,
2016-07-27 01:42:00,76.1,55.0,29.89,East,90,2.0,5.0,48,0.00,,,0.00,meteohub,2016-07-27 05:42:00,
2016-07-27 01:47:00,76.1,55.6,29.89,East,92,2.0,5.0,49,0.00,,,0.00,meteohub,2016-07-27 05:47:00,
2016-07-27 01:52:00,76.1,55.6,29.89,East,88,1.0,5.0,49,0.00,,,0.00,meteohub,2016-07-27 05:52:00,
2016-07-27 01:57:00,75.9,55.4,29.89,East,88,0.0,5.0,49,0.00,,,0.00,meteohub,2016-07-27 05:57:00,
2016-07-27 02:02:00,75.9,55.9,29.89,East,88,1.0,3.0,50,0.00,,,0.00,meteohub,2016-07-27 06:02:00,
2016-07-27 02:07:00,75.7,55.8,29.89,East,88,0.0,3.0,50,0.00,,,0.00,meteohub,2016-07-27 06:07:00,
2016-07-27 02:12:00,75.7,56.3,29.89,East,85,1.0,3.0,51,0.00,,,0.00,meteohub,2016-07-27 06:12:00,
2016-07-27 02:17:00,75.7,56.3,29.89,East,89,1.0,3.0,51,0.00,,,0.00,meteohub,2016-07-27 06:17:00,
2016-07-27 02:22:00,75.6,55.6,29.89,East,88,2.0,3.0,50,0.00,,,0.00,meteohub,2016-07-27 06:22:00,
2016-07-27 02:27:00,75.6,55.6,29.89,East,88,1.0,3.0,50,0.00,,,0.00,meteohub,2016-07-27 06:27:00,
2016-07-27 02:32:00,75.4,54.9,29.90,East,88,0.0,3.0,49,0.00,,,0.00,meteohub,2016-07-27 06:32:00,
2016-07-27 02:37:00,75.0,53.4,29.90,East,88,0.0,3.0,47,0.00,,,0.00,meteohub,2016-07-27 06:37:00,
2016-07-27 02:42:00,74.8,52.7,29.90,East,88,0.0,2.0,46,0.00,,,0.00,meteohub,2016-07-27 06:42:00,
2016-07-27 02:47:00,74.5,51.1,29.90,East,88,0.0,2.0,44,0.00,,,0.00,meteohub,2016-07-27 06:47:00,
2016-07-27 02:52:00,74.1,48.2,29.90,East,88,0.0,1.0,40,0.00,,,0.00,meteohub,2016-07-27 06:52:00,
2016-07-27 02:57:00,73.8,45.9,29.90,East,88,0.0,0.0,37,0.00,,,0.00,meteohub,2016-07-27 06:57:00,
2016-07-27 03:02:00,73.2,43.2,29.90,East,88,0.0,0.0,34,0.00,,,0.00,meteohub,2016-07-27 07:02:00,
2016-07-27 03:07:00,72.7,37.8,29.91,East,88,0.0,0.0,28,0.00,,,0.00,meteohub,2016-07-27 07:07:00,
2016-07-27 03:12:00,72.3,27.7,29.91,East,88,0.0,0.0,19,0.00,,,0.00,meteohub,2016-07-27 07:12:00,
2016-07-27 03:17:00,72.0,23.4,29.91,East,88,0.0,0.0,16,0.00,,,0.00,meteohub,2016-07-27 07:17:00,
2016-07-27 03:23:00,71.4,14.2,29.91,East,88,0.0,0.0,11,0.00,,,0.00,meteohub,2016-07-27 07:23:00,
2016-07-27 03:28:00,71.2,0.7,29.90,East,88,0.0,1.0,6,0.00,,,0.00,meteohub,2016-07-27 07:28:00,
2016-07-27 03:33:00,71.1,-3.3,29.90,East,88,0.0,1.0,5,0.00,,,0.00,meteohub,2016-07-27 07:33:00,
2016-07-27 03:38:00,70.9,70.9,29.90,East,88,0.0,1.0,0,0.00,,,0.00,meteohub,2016-07-27 07:38:00,
2016-07-27 03:43:00,70.5,70.5,29.90,East,88,0.0,1.0,0,0.00,,,0.00,meteohub,2016-07-27 07:43:00,
2016-07-27 03:49:00,70.3,70.3,29.90,East,88,0.0,0.0,0,0.00,,,0.00,meteohub,2016-07-27 07:49:00,
2016-07-27 03:54:00,70.0,70.0,29.90,East,88,0.0,0.0,0,0.00,,,0.00,meteohub,2016-07-27 07:54:00,
2016-07-27 03:59:00,69.6,69.6,29.90,East,88,0.0,0.0,0,0.00,,,0.00,meteohub,2016-07-27 07:59:00,
2016-07-27 04:04:00,69.6,69.6,29.90,East,88,0.0,0.0,0,0.00,,,0.00,meteohub,2016-07-27 08:04:00,
2016-07-27 04:09:00,69.3,69.3,29.90,East,88,0.0,0.0,0,0.00,,,0.00,meteohub,2016-07-27 08:09:00,
2016-07-27 04:14:00,69.1,69.1,29.90,East,88,0.0,0.0,0,0.00,,,0.00,meteohub,2016-07-27 08:14:00,
2016-07-27 04:19:00,68.9,68.9,29.90,East,88,0.0,0.0,0,0.00,,,0.00,meteohub,2016-07-27 08:19:00,
2016-07-27 04:24:00,68.7,68.7,29.90,East,88,0.0,0.0,0,0.00,,,0.00,meteohub,2016-07-27 08:24:00,
2016-07-27 04:30:00,68.5,68.5,29.90,East,88,0.0,0.0,0,0.00,,,0.00,meteohub,2016-07-27 08:30:00,
2016-07-27 04:35:00,68.5,68.5,29.90,East,88,0.0,0.0,0,0.00,,,0.00,meteohub,2016-07-27 08:35:00,
2016-07-27 04:40:00,68.4,68.4,29.90,East,88,0.0,0.0,0,0.00,,,0.00,meteohub,2016-07-27 08:40:00,
2016-07-27 04:45:00,68.4,68.4,29.90,East,88,0.0,1.0,0,0.00,,,0.00,meteohub,2016-07-27 08:45:00,
2016-07-27 04:50:00,68.2,68.2,29.91,East,88,0.0,0.0,0,0.00,,,0.00,meteohub,2016-07-27 08:50:00,
2016-07-27 04:55:00,68.2,68.2,29.90,East,88,0.0,0.0,0,0.00,,,0.00,meteohub,2016-07-27 08:55:00,
2016-07-27 05:00:00,68.2,68.2,29.91,East,88,0.0,0.0,0,0.00,,,0.00,meteohub,2016-07-27 09:00:00,
2016-07-27 05:05:00,68.0,68.0,29.91,East,88,0.0,0.0,0,0.00,,,0.00,meteohub,2016-07-27 09:05:00,
2016-07-27 05:11:00,68.0,68.0,29.91,East,88,0.0,0.0,0,0.00,,,0.00,meteohub,2016-07-27 09:11:00,
2016-07-27 05:14:00,68.0,68.0,29.91,East,88,0.0,0.0,0,0.00,,,0.00,meteohub,2016-07-27 09:14:00,
2016-07-27 05:19:00,67.8,67.8,29.92,East,88,0.0,0.0,0,0.00,,,0.00,meteohub,2016-07-27 09:19:00,
2016-07-27 05:22:00,67.8,67.8,29.92,East,88,0.0,0.0,0,0.00,,,0.00,meteohub,2016-07-27 09:22:00,
2016-07-27 05:27:00,67.6,67.6,29.92,East,88,0.0,0.0,0,0.00,,,0.00,meteohub,2016-07-27 09:27:00,
2016-07-27 05:32:00,67.6,67.6,29.92,East,88,0.0,0.0,0,0.00,,,0.00,meteohub,2016-07-27 09:32:00,
2016-07-27 05:37:00,67.6,67.6,29.93,East,88,0.0,0.0,0,0.00,,,0.00,meteohub,2016-07-27 09:37:00,
2016-07-27 05:42:00,67.8,67.8,29.93,East,88,0.0,1.0,0,0.00,,,0.00,meteohub,2016-07-27 09:42:00,
2016-07-27 05:47:00,68.2,68.2,29.93,East,88,1.0,1.0,0,0.00,,,0.00,meteohub,2016-07-27 09:47:00,
2016-07-27 05:52:00,68.4,68.4,29.93,East,88,0.0,1.0,0,0.00,,,0.00,meteohub,2016-07-27 09:52:00,
2016-07-27 05:57:00,68.4,68.4,29.93,East,88,0.0,1.0,0,0.00,,,0.00,meteohub,2016-07-27 09:57:00,
2016-07-27 06:02:00,68.4,68.4,29.93,East,88,0.0,1.0,0,0.00,,,0.00,meteohub,2016-07-27 10:02:00,
2016-07-27 06:07:00,68.4,68.4,29.93,East,88,0.0,1.0,0,0.00,,,0.00,meteohub,2016-07-27 10:07:00,
2016-07-27 06:12:00,68.4,68.4,29.93,East,88,0.0,1.0,0,0.00,,,0.00,meteohub,2016-07-27 10:12:00,
2016-07-27 06:17:00,68.2,68.2,29.93,East,88,0.0,0.0,0,0.00,,,0.00,meteohub,2016-07-27 10:17:00,
2016-07-27 06:22:00,68.2,68.2,29.93,East,88,0.0,0.0,0,0.00,,,0.00,meteohub,2016-07-27 10:22:00,
2016-07-27 06:27:00,68.2,68.2,29.93,East,88,0.0,1.0,0,0.00,,,0.00,meteohub,2016-07-27 10:27:00,
2016-07-27 06:32:00,68.5,68.5,29.93,East,88,0.0,1.0,0,0.00,,,0.00,meteohub,2016-07-27 10:32:00,
2016-07-27 06:37:00,69.1,69.1,29.93,East,88,0.0,1.0,0,0.00,,,0.00,meteohub,2016-07-27 10:37:00,
2016-07-27 06:42:00,69.6,69.6,29.93,East,88,0.0,1.0,0,0.00,,,0.00,meteohub,2016-07-27 10:42:00,
2016-07-27 06:47:00,70.2,70.2,29.93,East,88,0.0,2.0,0,0.00,,,0.00,meteohub,2016-07-27 10:47:00,
2016-07-27 06:52:00,70.5,70.5,29.93,East,88,1.0,2.0,0,0.00,,,0.00,meteohub,2016-07-27 10:52:00,
2016-07-27 06:57:00,71.1,71.1,29.93,East,88,0.0,3.0,0,0.00,,,0.00,meteohub,2016-07-27 10:57:00,
2016-07-27 07:02:00,71.4,71.4,29.93,East,88,1.0,3.0,0,0.00,,,0.00,meteohub,2016-07-27 11:02:00,
2016-07-27 07:07:00,71.8,71.8,29.93,East,84,1.0,3.0,0,0.00,,,0.00,meteohub,2016-07-27 11:07:00,
2016-07-27 07:12:00,72.0,72.0,29.93,East,86,2.0,3.0,0,0.00,,,0.00,meteohub,2016-07-27 11:12:00,
2016-07-27 07:17:00,72.3,-20.7,29.93,East,86,0.0,3.0,2,0.00,,,0.00,meteohub,2016-07-27 11:17:00,
2016-07-27 07:22:00,72.7,1.8,29.94,East,87,0.0,3.0,6,0.00,,,0.00,meteohub,2016-07-27 11:22:00,
2016-07-27 07:27:00,73.0,13.3,29.94,East,90,1.0,3.0,10,0.00,,,0.00,meteohub,2016-07-27 11:27:00,
2016-07-27 07:32:00,73.2,17.6,29.94,East,91,1.0,3.0,12,0.00,,,0.00,meteohub,2016-07-27 11:32:00,
2016-07-27 07:37:00,73.8,26.2,29.94,East,90,1.0,3.0,17,0.00,,,0.00,meteohub,2016-07-27 11:37:00,
2016-07-27 07:42:00,73.9,29.1,29.94,East,92,0.0,3.0,19,0.00,,,0.00,meteohub,2016-07-27 11:42:00,
2016-07-27 07:47:00,74.1,29.3,29.94,East,93,2.0,5.0,19,0.00,,,0.00,meteohub,2016-07-27 11:47:00,
2016-07-27 07:52:00,74.5,34.3,29.94,East,90,1.0,5.0,23,0.00,,,0.00,meteohub,2016-07-27 11:52:00,
2016-07-27 07:57:00,74.7,36.5,29.94,East,93,2.0,6.0,25,0.00,,,0.00,meteohub,2016-07-27 11:57:00,
2016-07-27 08:02:00,74.8,38.7,29.94,East,92,3.0,6.0,27,0.00,,,0.00,meteohub,2016-07-27 12:02:00,
2016-07-27 08:07:00,75.0,38.8,29.94,East,90,1.0,6.0,27,0.00,,,0.00,meteohub,2016-07-27 12:07:00,
2016-07-27 08:12:00,75.4,40.1,29.94,East,93,2.0,5.0,28,0.00,,,0.00,meteohub,2016-07-27 12:12:00,
2016-07-27 08:17:00,75.7,40.3,29.94,East,93,2.0,6.0,28,0.00,,,0.00,meteohub,2016-07-27 12:17:00,
2016-07-27 08:22:00,76.3,41.7,29.94,East,90,3.0,6.0,29,0.00,,,0.00,meteohub,2016-07-27 12:22:00,
2016-07-27 08:27:00,76.5,44.4,29.94,NE,41,3.0,6.0,32,0.00,,,0.00,meteohub,2016-07-27 12:27:00,
2016-07-27 08:32:00,76.8,47.8,29.94,East,88,0.0,6.0,36,0.00,,,0.00,meteohub,2016-07-27 12:32:00,
2016-07-27 08:37:00,77.0,49.5,29.94,East,85,0.0,6.0,38,0.00,,,0.00,meteohub,2016-07-27 12:37:00,
2016-07-27 08:42:00,76.8,50.7,29.94,East,96,2.0,6.0,40,0.00,,,0.00,meteohub,2016-07-27 12:42:00,
2016-07-27 08:47:00,76.8,50.7,29.94,East,96,2.0,6.0,40,0.00,,,0.00,meteohub,2016-07-27 12:47:00,
2016-07-27 08:52:00,77.0,50.9,29.94,East,94,0.0,6.0,40,0.00,,,0.00,meteohub,2016-07-27 12:52:00,
2016-07-27 08:57:00,76.8,52.7,29.94,ESE,117,2.0,6.0,43,0.00,,,0.00,meteohub,2016-07-27 12:57:00,
2016-07-27 09:02:00,77.0,52.2,29.94,ENE,78,1.0,6.0,42,0.00,,,0.00,meteohub,2016-07-27 13:02:00,
2016-07-27 09:07:00,77.2,53.6,29.94,ESE,105,2.0,6.0,44,0.00,,,0.00,meteohub,2016-07-27 13:07:00,
2016-07-27 09:12:00,77.4,53.8,29.94,East,98,1.0,5.0,44,0.00,,,0.00,meteohub,2016-07-27 13:12:00,
2016-07-27 09:17:00,77.5,52.0,29.94,ENE,74,2.0,5.0,41,0.00,,,0.00,meteohub,2016-07-27 13:17:00,
2016-07-27 09:22:00,78.1,55.6,29.94,ENE,78,1.0,6.0,46,0.00,,,0.00,meteohub,2016-07-27 13:22:00,
2016-07-27 09:27:00,78.1,56.3,29.94,East,89,2.0,6.0,47,0.00,,,0.00,meteohub,2016-07-27 13:27:00,
2016-07-27 09:32:00,78.3,56.3,29.94,East,94,2.0,6.0,47,0.00,,,0.00,meteohub,2016-07-27 13:32:00,
2016-07-27 09:37:00,78.3,55.8,29.94,East,81,1.0,6.0,46,0.00,,,0.00,meteohub,2016-07-27 13:37:00,
2016-07-27 09:42:00,78.3,56.3,29.94,ENE,74,2.0,6.0,47,0.00,,,0.00,meteohub,2016-07-27 13:42:00,
2016-07-27 09:47:00,78.3,55.8,29.94,ENE,67,3.0,7.0,46,0.00,,,0.00,meteohub,2016-07-27 13:47:00,
2016-07-27 09:52:00,78.6,57.2,29.94,East,101,3.0,7.0,48,0.00,,,0.00,meteohub,2016-07-27 13:52:00,
2016-07-27 09:57:00,79.2,59.0,29.94,ENE,75,0.0,7.0,50,0.00,,,0.00,meteohub,2016-07-27 13:57:00,
2016-07-27 10:02:00,79.3,58.5,29.94,ENE,69,2.0,7.0,49,0.00,,,0.00,meteohub,2016-07-27 14:02:00,
2016-07-27 10:07:00,79.3,59.7,29.94,ESE,111,1.0,5.0,51,0.00,,,0.00,meteohub,2016-07-27 14:07:00,
2016-07-27 10:12:00,79.5,59.7,29.94,East,97,2.0,5.0,51,0.00,,,0.00,meteohub,2016-07-27 14:12:00,
2016-07-27 10:17:00,80.1,60.3,29.94,ENE,67,1.0,5.0,51,0.00,,,0.00,meteohub,2016-07-27 14:17:00,
2016-07-27 10:22:00,79.7,60.4,29.94,East,95,0.0,5.0,52,0.00,,,0.00,meteohub,2016-07-27 14:22:00,
2016-07-27 10:27:00,79.9,60.1,29.94,East,81,0.0,7.0,51,0.00,,,0.00,meteohub,2016-07-27 14:27:00,
2016-07-27 10:32:00,80.4,61.2,29.94,ENE,74,2.0,7.0,52,0.00,,,0.00,meteohub,2016-07-27 14:32:00,
2016-07-27 10:38:00,80.4,61.7,29.94,East,84,2.0,6.0,53,0.00,,,0.00,meteohub,2016-07-27 14:38:00,
2016-07-27 10:43:00,80.4,61.2,29.94,ENE,61,3.0,5.0,52,0.00,,,0.00,meteohub,2016-07-27 14:43:00,
2016-07-27 10:48:00,80.4,61.7,29.94,East,95,5.0,5.0,53,0.00,,,0.00,meteohub,2016-07-27 14:48:00,
2016-07-27 10:53:00,80.8,62.1,29.94,NE,41,3.0,5.0,53,0.00,,,0.00,meteohub,2016-07-27 14:53:00,
2016-07-27 10:58:00,81.0,62.2,29.94,NE,50,4.0,6.0,53,0.00,,,0.00,meteohub,2016-07-27 14:58:00,
2016-07-27 11:03:00,81.0,61.7,29.94,East,90,2.0,6.0,52,0.00,,,0.00,meteohub,2016-07-27 15:03:00,
2016-07-27 11:08:00,80.6,61.3,29.94,WSW,242,0.0,6.0,52,0.00,,,0.00,meteohub,2016-07-27 15:08:00,
2016-07-27 11:14:00,80.8,61.5,29.94,East,86,0.0,6.0,52,0.00,,,0.00,meteohub,2016-07-27 15:14:00,
2016-07-27 11:19:00,81.3,62.6,29.94,SE,134,1.0,6.0,53,0.00,,,0.00,meteohub,2016-07-27 15:19:00,
2016-07-27 11:24:00,81.3,62.6,29.94,ESE,117,1.0,5.0,53,0.00,,,0.00,meteohub,2016-07-27 15:24:00,
2016-07-27 11:29:00,82.0,63.1,29.94,WSW,247,3.0,5.0,53,0.00,,,0.00,meteohub,2016-07-27 15:29:00,
2016-07-27 11:34:00,82.2,63.3,29.94,SW,232,0.0,5.0,53,0.00,,,0.00,meteohub,2016-07-27 15:34:00,
2016-07-27 11:39:00,81.9,63.0,29.94,East,80,0.0,5.0,53,0.00,,,0.00,meteohub,2016-07-27 15:39:00,
2016-07-27 11:44:00,82.2,63.3,29.93,East,88,1.0,8.0,53,0.00,,,0.00,meteohub,2016-07-27 15:44:00,
2016-07-27 11:49:00,82.2,63.3,29.93,NE,34,0.0,8.0,53,0.00,,,0.00,meteohub,2016-07-27 15:49:00,
2016-07-27 11:54:00,82.4,63.5,29.93,East,84,3.0,8.0,53,0.00,,,0.00,meteohub,2016-07-27 15:54:00,
2016-07-27 12:00:00,82.8,63.9,29.93,WSW,257,3.0,7.0,53,0.00,,,0.00,meteohub,2016-07-27 16:00:00,
2016-07-27 12:05:00,82.9,64.0,29.93,ESE,102,0.0,6.0,53,0.00,,,0.00,meteohub,2016-07-27 16:05:00,
2016-07-27 12:10:00,83.5,64.6,29.93,ESE,103,5.0,5.0,53,0.00,,,0.00,meteohub,2016-07-27 16:10:00,
2016-07-27 12:15:00,83.1,64.2,29.93,East,82,0.0,5.0,53,0.00,,,0.00,meteohub,2016-07-27 16:15:00,
2016-07-27 12:20:00,83.5,64.0,29.93,NE,56,2.0,7.0,52,0.00,,,0.00,meteohub,2016-07-27 16:20:00,
2016-07-27 12:25:00,83.1,64.2,29.93,ESE,111,5.0,5.0,53,0.00,,,0.00,meteohub,2016-07-27 16:25:00,
2016-07-27 12:30:00,82.9,64.0,29.93,NNW,336,2.0,6.0,53,0.00,,,0.00,meteohub,2016-07-27 16:30:00,
2016-07-27 12:35:00,83.1,64.2,29.93,East,89,3.0,7.0,53,0.00,,,0.00,meteohub,2016-07-27 16:35:00,
2016-07-27 12:40:00,82.8,63.9,29.93,East,85,1.0,7.0,53,0.00,,,0.00,meteohub,2016-07-27 16:40:00,
2016-07-27 12:45:00,82.8,63.9,29.93,East,81,5.0,7.0,53,0.00,,,0.00,meteohub,2016-07-27 16:45:00,
2016-07-27 12:51:00,83.1,64.2,29.93,ESE,105,0.0,7.0,53,0.00,,,0.00,meteohub,2016-07-27 16:51:00,
2016-07-27 12:56:00,83.8,64.4,29.93,ESE,119,1.0,7.0,52,0.00,,,0.00,meteohub,2016-07-27 16:56:00,
2016-07-27 13:01:00,84.0,65.1,29.93,SW,220,0.0,5.0,53,0.00,,,0.00,meteohub,2016-07-27 17:01:00,
2016-07-27 13:06:00,84.4,64.8,29.93,East,87,3.0,5.0,52,0.00,,,0.00,meteohub,2016-07-27 17:06:00,
2016-07-27 13:11:00,83.3,64.4,29.93,East,84,1.0,6.0,53,0.00,,,0.00,meteohub,2016-07-27 17:11:00,
2016-07-27 13:16:00,83.5,64.0,29.93,West,275,4.0,6.0,52,0.00,,,0.00,meteohub,2016-07-27 17:16:00,
2016-07-27 13:21:00,83.5,64.6,29.93,SW,228,1.0,7.0,53,0.00,,,0.00,meteohub,2016-07-27 17:21:00,
2016-07-27 13:26:00,84.0,65.1,29.92,SW,224,4.0,8.0,53,0.00,,,0.00,meteohub,2016-07-27 17:26:00,
2016-07-27 13:31:00,84.4,64.8,29.92,West,261,4.0,8.0,52,0.00,,,0.00,meteohub,2016-07-27 17:31:00,
2016-07-27 13:37:00,84.4,65.3,29.92,SW,219,1.0,10.0,53,0.00,,,0.00,meteohub,2016-07-27 17:37:00,
2016-07-27 13:42:00,83.8,64.9,29.92,NNW,327,3.0,10.0,53,0.00,,,0.00,meteohub,2016-07-27 17:42:00,
2016-07-27 13:47:00,83.3,64.4,29.92,WSW,244,5.0,10.0,53,0.00,,,0.00,meteohub,2016-07-27 17:47:00,
2016-07-27 13:52:00,82.8,63.9,29.92,SW,227,4.0,8.0,53,0.00,,,0.00,meteohub,2016-07-27 17:52:00,
2016-07-27 13:57:00,82.6,63.7,29.92,West,263,0.0,11.0,53,0.00,,,0.00,meteohub,2016-07-27 17:57:00,
2016-07-27 14:02:00,83.3,64.4,29.92,West,271,4.0,11.0,53,0.00,,,0.00,meteohub,2016-07-27 18:02:00,
2016-07-27 14:07:00,83.7,64.8,29.92,WSW,250,5.0,11.0,53,0.00,,,0.00,meteohub,2016-07-27 18:07:00,
2016-07-27 14:12:00,83.5,64.6,29.91,WSW,250,0.0,8.0,53,0.00,,,0.00,meteohub,2016-07-27 18:12:00,
2016-07-27 14:17:00,83.7,64.8,29.91,West,271,6.0,8.0,53,0.00,,,0.00,meteohub,2016-07-27 18:17:00,
2016-07-27 14:22:00,83.1,64.2,29.91,West,279,4.0,7.0,53,0.00,,,0.00,meteohub,2016-07-27 18:22:00,
2016-07-27 14:27:00,82.8,63.9,29.91,WNW,291,2.0,8.0,53,0.00,,,0.00,meteohub,2016-07-27 18:27:00,
2016-07-27 14:32:00,82.6,63.7,29.91,West,278,3.0,8.0,53,0.00,,,0.00,meteohub,2016-07-27 18:32:00,
2016-07-27 14:37:00,82.6,62.6,29.91,WNW,294,4.0,8.0,51,0.00,,,0.00,meteohub,2016-07-27 18:37:00,
2016-07-27 14:42:00,82.9,63.5,29.91,WNW,292,5.0,10.0,52,0.00,,,0.00,meteohub,2016-07-27 18:42:00,
2016-07-27 14:47:00,83.5,64.6,29.91,WNW,298,3.0,10.0,53,0.00,,,0.00,meteohub,2016-07-27 18:47:00,
2016-07-27 14:52:00,83.1,64.2,29.91,West,264,7.0,10.0,53,0.00,,,0.00,meteohub,2016-07-27 18:52:00,
2016-07-27 14:57:00,83.1,64.2,29.91,WNW,298,6.0,10.0,53,0.00,,,0.00,meteohub,2016-07-27 18:57:00,
2016-07-27 15:02:00,83.1,63.1,29.91,WSW,246,6.0,11.0,51,0.00,,,0.00,meteohub,2016-07-27 19:02:00,
2016-07-27 15:07:00,82.8,63.3,29.92,WSW,242,7.0,11.0,52,0.00,,,0.00,meteohub,2016-07-27 19:07:00,
2016-07-27 15:12:00,82.2,63.3,29.91,WSW,254,6.0,10.0,53,0.00,,,0.00,meteohub,2016-07-27 19:12:00,
2016-07-27 15:17:00,82.0,62.6,29.92,SW,233,7.0,10.0,52,0.00,,,0.00,meteohub,2016-07-27 19:17:00,
2016-07-27 15:22:00,81.7,61.9,29.92,West,261,6.0,14.0,51,0.00,,,0.00,meteohub,2016-07-27 19:22:00,
2016-07-27 15:27:00,81.5,61.0,29.91,West,275,4.0,14.0,50,0.00,,,0.00,meteohub,2016-07-27 19:27:00,
2016-07-27 15:32:00,81.5,59.9,29.92,West,275,6.0,11.0,48,0.00,,,0.00,meteohub,2016-07-27 19:32:00,
2016-07-27 15:37:00,81.3,58.6,29.92,West,267,9.0,11.0,46,0.00,,,0.00,meteohub,2016-07-27 19:37:00,
2016-07-27 15:42:00,81.3,59.2,29.92,West,268,9.0,13.0,47,0.00,,,0.00,meteohub,2016-07-27 19:42:00,
2016-07-27 15:47:00,81.0,60.1,29.92,West,276,5.0,13.0,49,0.00,,,0.00,meteohub,2016-07-27 19:47:00,
2016-07-27 15:52:00,80.8,59.2,29.92,SW,219,5.0,13.0,48,0.00,,,0.00,meteohub,2016-07-27 19:52:00,
2016-07-27 15:57:00,80.6,56.7,29.91,NW,310,8.0,13.0,44,0.00,,,0.00,meteohub,2016-07-27 19:57:00,
2016-07-27 16:02:00,80.8,52.9,29.91,West,266,10.0,13.0,38,0.00,,,0.00,meteohub,2016-07-27 20:02:00,
2016-07-27 16:07:00,80.8,54.9,29.91,WSW,257,8.0,13.0,41,0.00,,,0.00,meteohub,2016-07-27 20:07:00,
2016-07-27 16:12:00,80.8,58.1,29.91,West,278,6.0,11.0,46,0.00,,,0.00,meteohub,2016-07-27 20:12:00,
2016-07-27 16:17:00,80.8,56.1,29.91,NNW,341,7.0,11.0,43,0.00,,,0.00,meteohub,2016-07-27 20:17:00,
2016-07-27 16:22:00,80.8,55.6,29.91,WSW,246,5.0,11.0,42,0.00,,,0.00,meteohub,2016-07-27 20:22:00,
2016-07-27 16:27:00,81.0,55.8,29.91,WNW,289,6.0,11.0,42,0.00,,,0.00,meteohub,2016-07-27 20:27:00,
2016-07-27 16:32:00,81.3,59.7,29.91,WSW,248,5.0,10.0,48,0.00,,,0.00,meteohub,2016-07-27 20:32:00,
2016-07-27 16:37:00,81.7,61.2,29.91,SSW,208,6.0,12.0,50,0.00,,,0.00,meteohub,2016-07-27 20:37:00,
2016-07-27 16:42:00,81.9,63.0,29.91,WNW,294,4.0,12.0,53,0.00,,,0.00,meteohub,2016-07-27 20:42:00,
2016-07-27 16:47:00,81.7,63.5,29.91,NW,311,4.0,12.0,54,0.00,,,0.00,meteohub,2016-07-27 20:47:00,
2016-07-27 16:52:00,81.7,63.0,29.91,WSW,256,3.0,11.0,53,0.00,,,0.00,meteohub,2016-07-27 20:52:00,
2016-07-27 16:57:00,82.0,63.1,29.91,WSW,252,8.0,11.0,53,0.00,,,0.00,meteohub,2016-07-27 20:57:00,
2016-07-27 17:02:00,81.9,63.0,29.91,NNW,327,6.0,11.0,53,0.00,,,0.00,meteohub,2016-07-27 21:02:00,
2016-07-27 17:07:00,81.3,62.6,29.91,West,261,7.0,10.0,53,0.00,,,0.00,meteohub,2016-07-27 21:07:00,
2016-07-27 17:12:00,81.1,62.4,29.91,West,275,7.0,12.0,53,0.00,,,0.00,meteohub,2016-07-27 21:12:00,
2016-07-27 17:22:00,80.4,60.1,29.91,NW,311,8.0,12.0,50,0.00,,,0.00,meteohub,2016-07-27 21:22:00,
2016-07-27 17:27:00,80.2,59.4,29.91,West,277,6.0,11.0,49,0.00,,,0.00,meteohub,2016-07-27 21:27:00,
2016-07-27 17:32:00,80.1,58.1,29.91,WNW,282,2.0,11.0,47,0.00,,,0.00,meteohub,2016-07-27 21:32:00,
2016-07-27 17:37:00,79.9,57.2,29.91,WSW,252,6.0,11.0,46,0.00,,,0.00,meteohub,2016-07-27 21:37:00,
2016-07-27 17:42:00,79.5,56.3,29.91,NW,321,6.0,11.0,45,0.00,,,0.00,meteohub,2016-07-27 21:42:00,
2016-07-27 17:47:00,79.3,54.9,29.90,West,272,6.0,11.0,43,0.00,,,0.00,meteohub,2016-07-27 21:47:00,
2016-07-27 17:57:00,79.2,52.7,29.91,NW,315,2.0,11.0,40,0.00,,,0.00,meteohub,2016-07-27 21:57:00,
2016-07-27 18:02:00,79.0,49.8,29.90,NW,324,7.0,11.0,36,0.00,,,0.00,meteohub,2016-07-27 22:02:00,
2016-07-27 18:08:00,78.6,47.1,29.90,WNW,287,8.0,11.0,33,0.00,,,0.00,meteohub,2016-07-27 22:08:00,
2016-07-27 18:13:00,78.4,44.4,29.90,NW,315,7.0,12.0,30,0.00,,,0.00,meteohub,2016-07-27 22:13:00,
2016-07-27 18:18:00,78.3,40.6,29.90,NW,321,7.0,12.0,26,0.00,,,0.00,meteohub,2016-07-27 22:18:00,
2016-07-27 18:23:00,78.3,36.3,29.90,WSW,254,6.0,12.0,22,0.00,,,0.00,meteohub,2016-07-27 22:23:00,
2016-07-27 18:28:00,78.3,29.8,29.90,WSW,241,9.0,10.0,17,0.00,,,0.00,meteohub,2016-07-27 22:28:00,
2016-07-27 18:33:00,78.1,25.0,29.90,West,279,4.0,13.0,14,0.00,,,0.00,meteohub,2016-07-27 22:33:00,
2016-07-27 18:38:00,77.9,16.9,29.90,WNW,299,7.0,13.0,10,0.00,,,0.00,meteohub,2016-07-27 22:38:00,
2016-07-27 18:43:00,77.7,23.0,29.90,West,265,8.0,13.0,13,0.00,,,0.00,meteohub,2016-07-27 22:43:00,
2016-07-27 18:48:00,77.5,16.7,29.90,West,279,5.0,11.0,10,0.00,,,0.00,meteohub,2016-07-27 22:48:00,
2016-07-27 18:54:00,77.5,16.7,29.91,NW,316,3.0,11.0,10,0.00,,,0.00,meteohub,2016-07-27 22:54:00,
2016-07-27 18:59:00,77.5,18.9,29.91,NW,304,2.0,11.0,11,0.00,,,0.00,meteohub,2016-07-27 22:59:00,
2016-07-27 19:04:00,77.4,26.1,29.91,WNW,286,2.0,9.0,15,0.00,,,0.00,meteohub,2016-07-27 23:04:00,
2016-07-27 19:09:00,77.4,22.6,29.91,SW,233,7.0,8.0,13,0.00,,,0.00,meteohub,2016-07-27 23:09:00,
2016-07-27 19:14:00,77.2,14.0,29.91,WNW,295,4.0,8.0,9,0.00,,,0.00,meteohub,2016-07-27 23:14:00,
2016-07-27 19:19:00,76.8,4.6,29.91,NW,318,3.0,8.0,6,0.00,,,0.00,meteohub,2016-07-27 23:19:00,
2016-07-27 19:24:00,76.6,-18.0,29.91,NW,304,5.0,9.0,2,0.00,,,0.00,meteohub,2016-07-27 23:24:00,
2016-07-27 19:29:00,76.6,76.6,29.91,NW,315,2.0,9.0,0,0.00,,,0.00,meteohub,2016-07-27 23:29:00,
2016-07-27 19:34:00,76.5,76.5,29.91,NW,315,5.0,8.0,0,0.00,,,0.00,meteohub,2016-07-27 23:34:00,
2016-07-27 19:40:00,76.3,76.3,29.91,WNW,295,5.0,8.0,0,0.00,,,0.00,meteohub,2016-07-27 23:40:00,
2016-07-27 19:45:00,76.1,76.1,29.91,West,275,4.0,8.0,0,0.00,,,0.00,meteohub,2016-07-27 23:45:00,
2016-07-27 19:50:00,75.9,75.9,29.91,NW,308,4.0,8.0,0,0.00,,,0.00,meteohub,2016-07-27 23:50:00,
2016-07-27 19:55:00,75.7,75.7,29.91,WNW,290,2.0,6.0,0,0.00,,,0.00,meteohub,2016-07-27 23:55:00,
2016-07-27 20:00:00,75.7,75.7,29.91,West,275,2.0,6.0,0,0.00,,,0.00,meteohub,2016-07-28 00:00:00,
2016-07-27 20:05:00,75.6,75.6,29.91,West,275,3.0,5.0,0,0.00,,,0.00,meteohub,2016-07-28 00:05:00,
2016-07-27 20:10:00,75.4,75.4,29.91,NW,307,3.0,7.0,0,0.00,,,0.00,meteohub,2016-07-28 00:10:00,
2016-07-27 20:15:00,75.0,75.0,29.91,West,273,2.0,7.0,0,0.00,,,0.00,meteohub,2016-07-28 00:15:00,
2016-07-27 20:20:00,75.0,75.0,29.91,West,273,2.0,7.0,0,0.00,,,0.00,meteohub,2016-07-28 00:20:00,
2016-07-27 20:25:00,74.8,74.8,29.91,West,273,2.0,5.0,0,0.00,,,0.00,meteohub,2016-07-28 00:25:00,
2016-07-27 20:31:00,74.7,74.7,29.91,West,273,1.0,5.0,0,0.00,,,0.00,meteohub,2016-07-28 00:31:00,
2016-07-27 20:36:00,74.7,74.7,29.91,WNW,283,3.0,5.0,0,0.00,,,0.00,meteohub,2016-07-28 00:36:00,
2016-07-27 20:41:00,74.5,74.5,29.91,WNW,283,1.0,7.0,0,0.00,,,0.00,meteohub,2016-07-28 00:41:00,
2016-07-27 20:46:00,74.5,74.5,29.91,WNW,283,2.0,7.0,0,0.00,,,0.00,meteohub,2016-07-28 00:46:00,
2016-07-27 20:51:00,74.1,74.1,29.91,WNW,283,2.0,5.0,0,0.00,,,0.00,meteohub,2016-07-28 00:51:00,
2016-07-27 20:56:00,74.1,74.1,29.92,WNW,283,1.0,4.0,0,0.00,,,0.00,meteohub,2016-07-28 00:56:00,
2016-07-27 21:01:00,73.9,73.9,29.92,West,275,3.0,4.0,0,0.00,,,0.00,meteohub,2016-07-28 01:01:00,
2016-07-27 21:06:00,73.9,73.9,29.91,West,274,3.0,4.0,0,0.00,,,0.00,meteohub,2016-07-28 01:06:00,
2016-07-27 21:11:00,73.8,73.8,29.92,West,261,3.0,5.0,0,0.00,,,0.00,meteohub,2016-07-28 01:11:00,
2016-07-27 21:17:00,73.8,73.8,29.92,WNW,300,3.0,6.0,0,0.00,,,0.00,meteohub,2016-07-28 01:17:00,
2016-07-27 21:22:00,73.8,73.8,29.92,West,277,3.0,6.0,0,0.00,,,0.00,meteohub,2016-07-28 01:22:00,
2016-07-27 21:27:00,73.8,73.8,29.92,WSW,258,2.0,6.0,0,0.00,,,0.00,meteohub,2016-07-28 01:27:00,
2016-07-27 21:32:00,73.6,73.6,29.92,WNW,293,0.0,6.0,0,0.00,,,0.00,meteohub,2016-07-28 01:32:00,
2016-07-27 21:37:00,73.6,73.6,29.92,WNW,291,1.0,5.0,0,0.00,,,0.00,meteohub,2016-07-28 01:37:00,
2016-07-27 21:42:00,73.6,73.6,29.92,WNW,291,2.0,5.0,0,0.00,,,0.00,meteohub,2016-07-28 01:42:00,
2016-07-27 21:47:00,73.4,73.4,29.92,WNW,292,2.0,5.0,0,0.00,,,0.00,meteohub,2016-07-28 01:47:00,
2016-07-27 21:52:00,73.4,73.4,29.92,WNW,291,1.0,4.0,0,0.00,,,0.00,meteohub,2016-07-28 01:52:00,
2016-07-27 21:57:00,73.4,73.4,29.92,WNW,291,0.0,4.0,0,0.00,,,0.00,meteohub,2016-07-28 01:57:00,
2016-07-27 22:02:00,73.2,73.2,29.92,WNW,291,0.0,4.0,0,0.00,,,0.00,meteohub,2016-07-28 02:02:00,
2016-07-27 22:07:00,73.2,73.2,29.92,WNW,291,2.0,4.0,0,0.00,,,0.00,meteohub,2016-07-28 02:07:00,
2016-07-27 22:12:00,73.0,73.0,29.92,WNW,291,0.0,4.0,0,0.00,,,0.00,meteohub,2016-07-28 02:12:00,
2016-07-27 22:17:00,73.0,73.0,29.92,WNW,291,0.0,3.0,0,0.00,,,0.00,meteohub,2016-07-28 02:17:00,
2016-07-27 22:22:00,73.0,73.0,29.92,WNW,291,2.0,3.0,0,0.00,,,0.00,meteohub,2016-07-28 02:22:00,
2016-07-27 22:27:00,73.0,73.0,29.92,NNW,327,2.0,3.0,0,0.00,,,0.00,meteohub,2016-07-28 02:27:00,
2016-07-27 22:32:00,73.0,73.0,29.92,NW,319,3.0,5.0,0,0.00,,,0.00,meteohub,2016-07-28 02:32:00,
2016-07-27 22:37:00,73.2,73.2,29.93,NW,310,3.0,5.0,0,0.00,,,0.00,meteohub,2016-07-28 02:37:00,
2016-07-27 22:42:00,73.2,73.2,29.92,NW,319,3.0,5.0,0,0.00,,,0.00,meteohub,2016-07-28 02:42:00,
2016-07-27 22:47:00,73.4,73.4,29.92,NW,309,2.0,5.0,0,0.00,,,0.00,meteohub,2016-07-28 02:47:00,
2016-07-27 22:52:00,73.4,73.4,29.93,NW,312,1.0,5.0,0,0.00,,,0.00,meteohub,2016-07-28 02:52:00,
2016-07-27 22:57:00,73.4,73.4,29.92,NW,306,2.0,5.0,0,0.00,,,0.00,meteohub,2016-07-28 02:57:00,
2016-07-27 23:02:00,73.2,73.2,29.92,West,279,1.0,6.0,0,0.00,,,0.00,meteohub,2016-07-28 03:02:00,
2016-07-27 23:07:00,73.2,73.2,29.92,West,280,1.0,6.0,0,0.00,,,0.00,meteohub,2016-07-28 03:07:00,
2016-07-27 23:12:00,73.2,73.2,29.93,NW,310,1.0,6.0,0,0.00,,,0.00,meteohub,2016-07-28 03:12:00,
2016-07-27 23:17:00,73.2,73.2,29.92,NW,318,2.0,6.0,0,0.00,,,0.00,meteohub,2016-07-28 03:17:00,
2016-07-27 23:22:00,73.0,73.0,29.92,WNW,298,1.0,5.0,0,0.00,,,0.00,meteohub,2016-07-28 03:22:00,
2016-07-27 23:27:00,73.0,73.0,29.92,WNW,298,2.0,5.0,0,0.00,,,0.00,meteohub,2016-07-28 03:27:00,
2016-07-27 23:32:00,72.9,72.9,29.93,WNW,298,2.0,5.0,0,0.00,,,0.00,meteohub,2016-07-28 03:32:00,